HST
1 20580U 90037B   23280.01049774  .00008962  00000-0  46628-3 0  9995
2 20580  28.4687 243.4169 0002630 150.6742 256.2655 15.14313965638687
ISS (ZARYA)
1 25544U 98067A   23280.37572917  .00019568  00000-0  35128-3 0  9997
2 25544  51.6407 132.8447 0005407  80.4167 270.2627 15.49886039419188
CXO
1 25867U 99040B   23281.65886807  .00001046  00000-0  00000-0 0  9995
2 25867  37.3943 182.3034 9047864 274.3273   0.2458  0.37808497 13612